M I D A S
Marine Information and Data Acquisition System
Tripno 1636 of the Zeeleeuw from 2009-01-29 07:42:15 to 2009-01-29 15:35:18
Back to CruiseResearch ActivitiesStationsMapUnderway DataData graphs

EquipmentUnitsComments
TimeDGPSUTC
LatitudeDGPSDM.mWGS84
LongitudeDGPSDM.mWGS84
SpeedMeteo Stationm/sRelative wind speed
DirectionMeteo StationdegRelative wind direction
TemperatureMeteo Stationdeg CelciusAir temperature
PressureMeteo StationPaAtmospheric pressure
HumidityMeteo Station%Relative humidity
Missing or incorrect values are displayed as -999
Metereological data collected by the RV Zeeleeuw from 2009-01-29 07:47:35 to 2009-01-29 15:43:16
                                                                                    Next 1000 lines
Time Latitude Longitude Speed Direction Temperature Pressure Humidity
2009-01-29 07:47:45 51°13.662 2°55.957 -999 -999 -999 -999 -999
2009-01-29 07:47:50 51°13.663 2°55.955 -999 -999 -999 -999 -999
2009-01-29 07:47:55 51°13.664 2°55.952 -999 -999 -999 -999 -999
2009-01-29 07:48:00 51°13.665 2°55.949 -999 -999 -999 -999 -999
2009-01-29 07:48:05 51°13.666 2°55.945 -999 -999 -999 -999 -999
2009-01-29 07:48:10 51°13.667 2°55.94 -999 -999 -999 -999 -999
2009-01-29 07:48:15 51°13.669 2°55.935 -999 -999 -999 -999 -999
2009-01-29 07:48:20 51°13.67 2°55.93 -999 -999 -999 -999 -999
2009-01-29 07:48:25 51°13.672 2°55.925 -999 -999 -999 -999 -999
2009-01-29 07:48:30 51°13.674 2°55.919 -999 -999 -999 -999 -999
2009-01-29 07:48:35 51°13.676 2°55.912 -999 -999 -999 -999 -999
2009-01-29 07:48:40 51°13.678 2°55.906 -999 -999 -999 -999 -999
2009-01-29 07:48:45 51°13.68 2°55.899 -999 -999 -999 -999 -999
2009-01-29 07:48:50 51°13.682 2°55.892 -999 -999 -999 -999 -999
2009-01-29 07:48:55 51°13.684 2°55.885 -999 -999 -999 -999 -999
2009-01-29 07:49:00 51°13.686 2°55.878 -999 -999 -999 -999 -999
2009-01-29 07:49:05 51°13.687 2°55.871 -999 -999 -999 -999 -999
2009-01-29 07:49:10 51°13.689 2°55.863 -999 -999 -999 -999 -999
2009-01-29 07:49:15 51°13.691 2°55.856 -999 -999 -999 -999 -999
2009-01-29 07:49:20 51°13.692 2°55.848 -999 -999 -999 -999 -999
2009-01-29 07:49:25 51°13.694 2°55.841 -999 -999 -999 -999 -999
2009-01-29 07:49:30 51°13.695 2°55.833 -999 -999 -999 -999 -999
2009-01-29 07:49:35 51°13.696 2°55.824 -999 -999 -999 -999 -999
2009-01-29 07:49:40 51°13.697 2°55.816 -999 -999 -999 -999 -999
2009-01-29 07:49:45 51°13.698 2°55.808 -999 -999 -999 -999 -999
2009-01-29 07:49:50 51°13.699 2°55.8 -999 -999 -999 -999 -999
2009-01-29 07:49:55 51°13.7 2°55.792 -999 -999 -999 -999 -999
2009-01-29 07:50:00 51°13.701 2°55.784 -999 -999 -999 -999 -999
2009-01-29 07:50:05 51°13.702 2°55.777 -999 -999 -999 -999 -999
2009-01-29 07:50:10 51°13.703 2°55.77 -999 -999 -999 -999 -999
2009-01-29 07:50:15 51°13.703 2°55.764 -999 -999 -999 -999 -999
2009-01-29 07:50:20 51°13.704 2°55.76 -999 -999 -999 -999 -999
2009-01-29 07:50:25 51°13.704 2°55.757 -999 -999 -999 -999 -999
2009-01-29 07:50:30 51°13.705 2°55.755 -999 -999 -999 -999 -999
2009-01-29 07:50:35 51°13.705 2°55.756 -999 -999 -999 -999 -999
2009-01-29 07:50:40 51°13.707 2°55.758 -999 -999 -999 -999 -999
2009-01-29 07:50:45 51°13.709 2°55.76 -999 -999 -999 -999 -999
2009-01-29 07:50:50 51°13.71 2°55.763 -999 -999 -999 -999 -999
2009-01-29 07:50:55 51°13.713 2°55.764 -999 -999 -999 -999 -999
2009-01-29 07:51:00 51°13.714 2°55.766 -999 -999 -999 -999 -999
2009-01-29 07:51:04 51°13.715 2°55.766 -999 -999 -999 -999 -999
2009-01-29 07:51:10 51°13.715 2°55.766 -999 -999 -999 -999 -999
2009-01-29 07:51:15 51°13.714 2°55.764 -999 -999 -999 -999 -999
2009-01-29 07:51:20 51°13.713 2°55.763 -999 -999 -999 -999 -999
2009-01-29 07:51:25 51°13.711 2°55.762 -999 -999 -999 -999 -999
2009-01-29 07:51:30 51°13.709 2°55.76 -999 -999 -999 -999 -999
2009-01-29 07:51:35 51°13.707 2°55.759 -999 -999 -999 -999 -999
2009-01-29 07:51:40 51°13.705 2°55.758 -999 -999 -999 -999 -999
2009-01-29 07:51:45 51°13.703 2°55.757 -999 -999 -999 -999 -999
2009-01-29 07:51:50 51°13.702 2°55.756 -999 -999 -999 -999 -999
2009-01-29 07:51:55 51°13.702 2°55.756 -999 -999 -999 -999 -999
2009-01-29 07:52:00 51°13.703 2°55.755 -999 -999 -999 -999 -999
2009-01-29 07:52:05 51°13.706 2°55.754 -999 -999 -999 -999 -999
2009-01-29 07:52:10 51°13.709 2°55.752 -999 -999 -999 -999 -999
2009-01-29 07:52:15 51°13.712 2°55.75 -999 -999 -999 -999 -999
2009-01-29 07:52:20 51°13.716 2°55.746 -999 -999 -999 -999 -999
2009-01-29 07:52:25 51°13.721 2°55.742 -999 -999 -999 -999 -999
2009-01-29 07:52:30 51°13.726 2°55.737 -999 -999 -999 -999 -999
2009-01-29 07:52:34 51°13.73 2°55.733 -999 -999 -999 -999 -999
2009-01-29 07:52:40 51°13.738 2°55.725 -999 -999 -999 -999 -999
2009-01-29 07:52:45 51°13.744 2°55.718 -999 -999 -999 -999 -999
2009-01-29 07:52:50 51°13.752 2°55.71 -999 -999 -999 -999 -999
2009-01-29 07:52:54 51°13.758 2°55.704 -999 -999 -999 -999 -999
2009-01-29 07:53:00 51°13.768 2°55.695 -999 -999 -999 -999 -999
2009-01-29 07:53:05 51°13.777 2°55.686 -999 -999 -999 -999 -999
2009-01-29 07:53:10 51°13.785 2°55.678 -999 -999 -999 -999 -999
2009-01-29 07:53:15 51°13.795 2°55.67 -999 -999 -999 -999 -999
2009-01-29 07:53:20 51°13.804 2°55.662 -999 -999 -999 -999 -999
2009-01-29 07:53:25 51°13.814 2°55.654 -999 -999 -999 -999 -999
2009-01-29 07:53:30 51°13.824 2°55.645 -999 -999 -999 -999 -999
2009-01-29 07:53:35 51°13.834 2°55.637 -999 -999 -999 -999 -999
2009-01-29 07:53:40 51°13.845 2°55.629 -999 -999 -999 -999 -999
2009-01-29 07:53:45 51°13.855 2°55.621 -999 -999 -999 -999 -999
2009-01-29 07:53:50 51°13.866 2°55.612 -999 -999 -999 -999 -999
2009-01-29 07:53:55 51°13.877 2°55.604 -999 -999 -999 -999 -999
2009-01-29 07:54:00 51°13.887 2°55.596 -999 -999 -999 -999 -999
2009-01-29 07:54:05 51°13.898 2°55.587 -999 -999 -999 -999 -999
2009-01-29 07:54:10 51°13.909 2°55.579 -999 -999 -999 -999 -999
2009-01-29 07:54:14 51°13.918 2°55.572 -999 -999 -999 -999 -999
2009-01-29 07:54:20 51°13.931 2°55.562 -999 -999 -999 -999 -999
2009-01-29 07:54:25 51°13.942 2°55.554 -999 -999 -999 -999 -999
2009-01-29 07:54:30 51°13.953 2°55.546 -999 -999 -999 -999 -999
2009-01-29 07:54:34 51°13.962 2°55.54 -999 -999 -999 -999 -999
2009-01-29 07:54:40 51°13.976 2°55.53 -999 -999 -999 -999 -999
2009-01-29 07:54:45 51°13.987 2°55.522 -999 -999 -999 -999 -999
2009-01-29 07:54:50 51°13.998 2°55.514 -999 -999 -999 -999 -999
2009-01-29 07:54:55 51°14.009 2°55.506 -999 -999 -999 -999 -999
2009-01-29 07:55:00 51°14.02 2°55.497 -999 -999 -999 -999 -999
2009-01-29 07:55:05 51°14.032 2°55.489 -999 -999 -999 -999 -999
2009-01-29 07:55:10 51°14.043 2°55.48 -999 -999 -999 -999 -999
2009-01-29 07:55:14 51°14.052 2°55.473 -999 -999 -999 -999 -999
2009-01-29 07:55:20 51°14.065 2°55.462 -999 -999 -999 -999 -999
2009-01-29 07:55:25 51°14.076 2°55.453 -999 -999 -999 -999 -999
2009-01-29 07:55:30 51°14.087 2°55.444 -999 -999 -999 -999 -999
2009-01-29 07:55:35 51°14.098 2°55.436 -999 -999 -999 -999 -999
2009-01-29 07:55:40 51°14.109 2°55.426 -999 -999 -999 -999 -999
2009-01-29 07:55:45 51°14.12 2°55.417 -999 -999 -999 -999 -999
2009-01-29 07:55:50 51°14.13 2°55.407 -999 -999 -999 -999 -999
2009-01-29 07:55:55 51°14.141 2°55.398 -999 -999 -999 -999 -999
2009-01-29 07:56:00 51°14.152 2°55.389 -999 -999 -999 -999 -999
2009-01-29 07:56:05 51°14.163 2°55.379 -999 -999 -999 -999 -999
2009-01-29 07:56:10 51°14.173 2°55.368 -999 -999 -999 -999 -999
2009-01-29 07:56:15 51°14.184 2°55.358 -999 -999 -999 -999 -999
2009-01-29 07:56:20 51°14.194 2°55.347 -999 -999 -999 -999 -999
2009-01-29 07:56:25 51°14.204 2°55.335 -999 -999 -999 -999 -999
2009-01-29 07:56:30 51°14.213 2°55.323 -999 -999 -999 -999 -999
2009-01-29 07:56:34 51°14.221 2°55.313 -999 -999 -999 -999 -999
2009-01-29 07:56:40 51°14.232 2°55.298 -999 -999 -999 -999 -999
2009-01-29 07:56:45 51°14.241 2°55.285 -999 -999 -999 -999 -999
2009-01-29 07:56:50 51°14.251 2°55.272 -999 -999 -999 -999 -999
2009-01-29 07:56:54 51°14.258 2°55.261 -999 -999 -999 -999 -999
2009-01-29 07:57:00 51°14.269 2°55.245 -999 -999 -999 -999 -999
2009-01-29 07:57:05 51°14.278 2°55.231 -999 -999 -999 -999 -999
2009-01-29 07:57:10 51°14.286 2°55.217 -999 -999 -999 -999 -999
2009-01-29 07:57:14 51°14.294 2°55.205 -999 -999 -999 -999 -999
2009-01-29 07:57:20 51°14.304 2°55.188 -999 -999 -999 -999 -999
2009-01-29 07:57:25 51°14.313 2°55.172 -999 -999 -999 -999 -999
2009-01-29 07:57:30 51°14.322 2°55.157 -999 -999 -999 -999 -999
2009-01-29 07:57:34 51°14.328 2°55.145 -999 -999 -999 -999 -999
2009-01-29 07:57:40 51°14.338 2°55.126 -999 -999 -999 -999 -999
2009-01-29 07:57:45 51°14.346 2°55.109 -999 -999 -999 -999 -999
2009-01-29 07:57:50 51°14.354 2°55.093 -999 -999 -999 -999 -999
2009-01-29 07:57:55 51°14.363 2°55.077 -999 -999 -999 -999 -999
2009-01-29 07:58:00 51°14.371 2°55.061 -999 -999 -999 -999 -999
2009-01-29 07:58:05 51°14.379 2°55.044 -999 -999 -999 -999 -999
2009-01-29 07:58:10 51°14.387 2°55.027 -999 -999 -999 -999 -999
2009-01-29 07:58:15 51°14.395 2°55.01 -999 -999 -999 -999 -999
2009-01-29 07:58:20 51°14.403 2°54.993 -999 -999 -999 -999 -999
2009-01-29 07:58:25 51°14.412 2°54.977 -999 -999 -999 -999 -999
2009-01-29 07:58:29 51°14.419 2°54.965 -999 -999 -999 -999 -999
2009-01-29 07:58:35 51°14.43 2°54.946 -999 -999 -999 -999 -999
2009-01-29 07:58:40 51°14.44 2°54.931 -999 -999 -999 -999 -999
2009-01-29 07:58:45 51°14.45 2°54.916 -999 -999 -999 -999 -999
2009-01-29 07:58:50 51°14.46 2°54.901 -999 -999 -999 -999 -999
2009-01-29 07:58:54 51°14.469 2°54.89 -999 -999 -999 -999 -999
2009-01-29 07:59:00 51°14.482 2°54.874 -999 -999 -999 -999 -999
2009-01-29 07:59:05 51°14.493 2°54.862 -999 -999 -999 -999 -999
2009-01-29 07:59:10 51°14.504 2°54.849 -999 -999 -999 -999 -999
2009-01-29 07:59:14 51°14.514 2°54.84 -999 -999 -999 -999 -999
2009-01-29 07:59:20 51°14.528 2°54.826 -999 -999 -999 -999 -999
2009-01-29 07:59:25 51°14.539 2°54.814 -999 -999 -999 -999 -999
2009-01-29 07:59:30 51°14.551 2°54.802 -999 -999 -999 -999 -999
2009-01-29 07:59:35 51°14.562 2°54.79 -999 -999 -999 -999 -999
2009-01-29 07:59:40 51°14.574 2°54.777 -999 -999 -999 -999 -999
2009-01-29 07:59:45 51°14.586 2°54.765 -999 -999 -999 -999 -999
2009-01-29 07:59:50 51°14.597 2°54.752 -999 -999 -999 -999 -999
2009-01-29 07:59:54 51°14.607 2°54.741 -999 -999 -999 -999 -999
2009-01-29 08:00:00 51°14.62 2°54.726 -999 -999 -999 -999 -999
2009-01-29 08:00:05 51°14.632 2°54.712 -999 -999 -999 -999 -999
2009-01-29 08:00:10 51°14.644 2°54.698 -999 -999 -999 -999 -999
2009-01-29 08:00:15 51°14.655 2°54.684 -999 -999 -999 -999 -999
2009-01-29 08:00:20 51°14.667 2°54.671 -999 -999 -999 -999 -999
2009-01-29 08:00:25 51°14.679 2°54.658 -999 -999 -999 -999 -999
2009-01-29 08:00:30 51°14.692 2°54.644 -999 -999 -999 -999 -999
2009-01-29 08:00:35 51°14.704 2°54.63 -999 -999 -999 -999 -999
2009-01-29 08:00:40 51°14.716 2°54.617 -999 -999 -999 -999 -999
2009-01-29 08:00:45 51°14.728 2°54.603 -999 -999 -999 -999 -999
2009-01-29 08:00:50 51°14.74 2°54.589 -999 -999 -999 -999 -999
2009-01-29 08:00:55 51°14.753 2°54.575 -999 -999 -999 -999 -999
2009-01-29 08:01:00 51°14.766 2°54.561 -999 -999 -999 -999 -999
2009-01-29 08:01:05 51°14.778 2°54.547 -999 -999 -999 -999 -999
2009-01-29 08:01:09 51°14.789 2°54.535 -999 -999 -999 -999 -999
2009-01-29 08:01:14 51°14.802 2°54.521 -999 -999 -999 -999 -999
2009-01-29 08:01:20 51°14.818 2°54.504 -999 -999 -999 -999 -999
2009-01-29 08:01:25 51°14.831 2°54.489 -999 -999 -999 -999 -999
2009-01-29 08:01:30 51°14.844 2°54.474 -999 -999 -999 -999 -999
2009-01-29 08:01:34 51°14.855 2°54.462 -999 -999 -999 -999 -999
2009-01-29 08:01:40 51°14.871 2°54.443 -999 -999 -999 -999 -999
2009-01-29 08:01:45 51°14.883 2°54.427 -999 -999 -999 -999 -999
2009-01-29 08:01:50 51°14.896 2°54.411 -999 -999 -999 -999 -999
2009-01-29 08:01:54 51°14.907 2°54.399 -999 -999 -999 -999 -999
2009-01-29 08:02:00 51°14.922 2°54.381 -999 -999 -999 -999 -999
2009-01-29 08:02:05 51°14.935 2°54.365 -999 -999 -999 -999 -999
2009-01-29 08:02:10 51°14.948 2°54.35 -999 -999 -999 -999 -999
2009-01-29 08:02:14 51°14.959 2°54.338 -999 -999 -999 -999 -999
2009-01-29 08:02:20 51°14.974 2°54.32 -999 -999 -999 -999 -999
2009-01-29 08:02:25 51°14.987 2°54.305 -999 -999 -999 -999 -999
2009-01-29 08:02:30 51°15 2°54.289 -999 -999 -999 -999 -999
2009-01-29 08:02:35 51°15.012 2°54.274 -999 -999 -999 -999 -999
2009-01-29 08:02:40 51°15.025 2°54.259 -999 -999 -999 -999 -999
2009-01-29 08:02:45 51°15.038 2°54.243 -999 -999 -999 -999 -999
2009-01-29 08:02:50 51°15.051 2°54.228 -999 -999 -999 -999 -999
2009-01-29 08:02:55 51°15.064 2°54.213 -999 -999 -999 -999 -999
2009-01-29 08:03:00 51°15.077 2°54.197 -999 -999 -999 -999 -999
2009-01-29 08:03:05 51°15.09 2°54.182 -999 -999 -999 -999 -999
2009-01-29 08:03:10 51°15.103 2°54.166 -999 -999 -999 -999 -999
2009-01-29 08:03:15 51°15.116 2°54.15 -999 -999 -999 -999 -999
2009-01-29 08:03:20 51°15.129 2°54.135 -999 -999 -999 -999 -999
2009-01-29 08:03:25 51°15.142 2°54.119 -999 -999 -999 -999 -999
2009-01-29 08:03:30 51°15.155 2°54.104 -999 -999 -999 -999 -999
2009-01-29 08:03:35 51°15.169 2°54.09 -999 -999 -999 -999 -999
2009-01-29 08:03:40 51°15.183 2°54.075 -999 -999 -999 -999 -999
2009-01-29 08:03:45 51°15.196 2°54.061 -999 -999 -999 -999 -999
2009-01-29 08:03:50 51°15.21 2°54.047 -999 -999 -999 -999 -999
2009-01-29 08:03:55 51°15.225 2°54.034 -999 -999 -999 -999 -999
2009-01-29 08:04:00 51°15.239 2°54.021 -999 -999 -999 -999 -999
2009-01-29 08:04:05 51°15.253 2°54.008 -999 -999 -999 -999 -999
2009-01-29 08:04:10 51°15.268 2°53.995 -999 -999 -999 -999 -999
2009-01-29 08:04:14 51°15.279 2°53.985 -999 -999 -999 -999 -999
2009-01-29 08:04:20 51°15.297 2°53.97 -999 -999 -999 -999 -999
2009-01-29 08:04:25 51°15.311 2°53.957 -999 -999 -999 -999 -999
2009-01-29 08:04:30 51°15.326 2°53.943 -999 -999 -999 -999 -999
2009-01-29 08:04:35 51°15.34 2°53.929 -999 -999 -999 -999 -999
2009-01-29 08:04:40 51°15.354 2°53.915 -999 -999 -999 -999 -999
2009-01-29 08:04:45 51°15.369 2°53.901 -999 -999 -999 -999 -999
2009-01-29 08:04:50 51°15.383 2°53.887 -999 -999 -999 -999 -999
2009-01-29 08:04:55 51°15.397 2°53.873 -999 -999 -999 -999 -999
2009-01-29 08:05:00 51°15.412 2°53.86 -999 -999 -999 -999 -999
2009-01-29 08:05:05 51°15.426 2°53.846 -999 -999 -999 -999 -999
2009-01-29 08:05:10 51°15.441 2°53.832 -999 -999 -999 -999 -999
2009-01-29 08:05:15 51°15.455 2°53.818 -999 -999 -999 -999 -999
2009-01-29 08:05:20 51°15.469 2°53.804 -999 -999 -999 -999 -999
2009-01-29 08:05:25 51°15.483 2°53.79 -999 -999 -999 -999 -999
2009-01-29 08:05:29 51°15.495 2°53.779 -999 -999 -999 -999 -999
2009-01-29 08:05:35 51°15.513 2°53.763 -999 -999 -999 -999 -999
2009-01-29 08:05:40 51°15.527 2°53.75 -999 -999 -999 -999 -999
2009-01-29 08:05:45 51°15.542 2°53.737 -999 -999 -999 -999 -999
2009-01-29 08:05:50 51°15.556 2°53.724 -999 -999 -999 -999 -999
2009-01-29 08:05:54 51°15.568 2°53.714 -999 -999 -999 -999 -999
2009-01-29 08:06:00 51°15.586 2°53.699 -999 -999 -999 -999 -999
2009-01-29 08:06:05 51°15.6 2°53.687 -999 -999 -999 -999 -999
2009-01-29 08:06:10 51°15.615 2°53.674 -999 -999 -999 -999 -999
2009-01-29 08:06:14 51°15.627 2°53.664 -999 -999 -999 -999 -999
2009-01-29 08:06:20 51°15.645 2°53.65 -999 -999 -999 -999 -999
2009-01-29 08:06:25 51°15.659 2°53.637 -999 -999 -999 -999 -999
2009-01-29 08:06:30 51°15.674 2°53.624 -999 -999 -999 -999 -999
2009-01-29 08:06:35 51°15.688 2°53.61 -999 -999 -999 -999 -999
2009-01-29 08:06:40 51°15.703 2°53.597 -999 -999 -999 -999 -999
2009-01-29 08:06:45 51°15.718 2°53.583 -999 -999 -999 -999 -999
2009-01-29 08:06:50 51°15.732 2°53.57 -999 -999 -999 -999 -999
2009-01-29 08:06:55 51°15.747 2°53.556 -999 -999 -999 -999 -999
2009-01-29 08:07:00 51°15.761 2°53.542 -999 -999 -999 -999 -999
2009-01-29 08:07:05 51°15.775 2°53.528 -999 -999 -999 -999 -999
2009-01-29 08:07:10 51°15.79 2°53.515 -999 -999 -999 -999 -999
2009-01-29 08:07:15 51°15.804 2°53.501 -999 -999 -999 -999 -999
2009-01-29 08:07:20 51°15.819 2°53.487 -999 -999 -999 -999 -999
2009-01-29 08:07:25 51°15.834 2°53.474 -999 -999 -999 -999 -999
2009-01-29 08:07:30 51°15.848 2°53.46 -999 -999 -999 -999 -999
2009-01-29 08:07:35 51°15.863 2°53.446 -999 -999 -999 -999 -999
2009-01-29 08:07:40 51°15.877 2°53.433 -999 -999 -999 -999 -999
2009-01-29 08:07:45 51°15.892 2°53.419 -999 -999 -999 -999 -999
2009-01-29 08:07:50 51°15.906 2°53.406 -999 -999 -999 -999 -999
2009-01-29 08:07:55 51°15.921 2°53.393 -999 -999 -999 -999 -999
2009-01-29 08:08:00 51°15.936 2°53.379 -999 -999 -999 -999 -999
2009-01-29 08:08:05 51°15.95 2°53.366 -999 -999 -999 -999 -999
2009-01-29 08:08:10 51°15.965 2°53.353 -999 -999 -999 -999 -999
2009-01-29 08:08:15 51°15.979 2°53.339 -999 -999 -999 -999 -999
2009-01-29 08:08:20 51°15.993 2°53.325 -999 -999 -999 -999 -999
2009-01-29 08:08:25 51°16.008 2°53.312 -999 -999 -999 -999 -999
2009-01-29 08:08:30 51°16.022 2°53.298 -999 -999 -999 -999 -999
2009-01-29 08:08:34 51°16.034 2°53.287 -999 -999 -999 -999 -999
2009-01-29 08:08:40 51°16.051 2°53.273 -999 -999 -999 -999 -999
2009-01-29 08:08:45 51°16.066 2°53.26 -999 -999 -999 -999 -999
2009-01-29 08:08:50 51°16.081 2°53.248 -999 -999 -999 -999 -999
2009-01-29 08:08:55 51°16.096 2°53.236 -999 -999 -999 -999 -999
2009-01-29 08:09:00 51°16.11 2°53.224 -999 -999 -999 -999 -999
2009-01-29 08:09:05 51°16.125 2°53.212 -999 -999 -999 -999 -999
2009-01-29 08:09:10 51°16.14 2°53.199 -999 -999 -999 -999 -999
2009-01-29 08:09:15 51°16.155 2°53.187 -999 -999 -999 -999 -999
2009-01-29 08:09:20 51°16.17 2°53.175 -999 -999 -999 -999 -999
2009-01-29 08:09:25 51°16.185 2°53.164 -999 -999 -999 -999 -999
2009-01-29 08:09:30 51°16.2 2°53.152 -999 -999 -999 -999 -999
2009-01-29 08:09:35 51°16.215 2°53.14 -999 -999 -999 -999 -999
2009-01-29 08:09:40 51°16.229 2°53.128 -999 -999 -999 -999 -999
2009-01-29 08:09:45 51°16.244 2°53.116 -999 -999 -999 -999 -999
2009-01-29 08:09:50 51°16.259 2°53.104 -999 -999 -999 -999 -999
2009-01-29 08:09:55 51°16.274 2°53.092 -999 -999 -999 -999 -999
2009-01-29 08:10:00 51°16.289 2°53.079 -999 -999 -999 -999 -999
2009-01-29 08:10:05 51°16.304 2°53.067 -999 -999 -999 -999 -999
2009-01-29 08:10:10 51°16.319 2°53.056 -999 -999 -999 -999 -999
2009-01-29 08:10:15 51°16.333 2°53.045 -999 -999 -999 -999 -999
2009-01-29 08:10:20 51°16.349 2°53.032 -999 -999 -999 -999 -999
2009-01-29 08:10:25 51°16.363 2°53.021 -999 -999 -999 -999 -999
2009-01-29 08:10:30 51°16.378 2°53.009 -999 -999 -999 -999 -999
2009-01-29 08:10:35 51°16.393 2°52.996 -999 -999 -999 -999 -999
2009-01-29 08:10:40 51°16.408 2°52.984 -999 -999 -999 -999 -999
2009-01-29 08:10:45 51°16.423 2°52.973 -999 -999 -999 -999 -999
2009-01-29 08:10:50 51°16.437 2°52.961 -999 -999 -999 -999 -999
2009-01-29 08:10:55 51°16.452 2°52.95 -999 -999 -999 -999 -999
2009-01-29 08:11:00 51°16.467 2°52.938 -999 -999 -999 -999 -999
2009-01-29 08:11:05 51°16.482 2°52.926 -999 -999 -999 -999 -999
2009-01-29 08:11:10 51°16.497 2°52.915 -999 -999 -999 -999 -999
2009-01-29 08:11:14 51°16.509 2°52.905 -999 -999 -999 -999 -999
2009-01-29 08:11:20 51°16.527 2°52.892 -999 -999 -999 -999 -999
2009-01-29 08:11:25 51°16.542 2°52.88 -999 -999 -999 -999 -999
2009-01-29 08:11:30 51°16.556 2°52.869 -999 -999 -999 -999 -999
2009-01-29 08:11:35 51°16.571 2°52.857 -999 -999 -999 -999 -999
2009-01-29 08:11:40 51°16.586 2°52.846 -999 -999 -999 -999 -999
2009-01-29 08:11:45 51°16.601 2°52.835 -999 -999 -999 -999 -999
2009-01-29 08:11:50 51°16.616 2°52.823 -999 -999 -999 -999 -999
2009-01-29 08:11:55 51°16.631 2°52.812 -999 -999 -999 -999 -999
2009-01-29 08:12:00 51°16.646 2°52.801 -999 -999 -999 -999 -999
2009-01-29 08:12:05 51°16.661 2°52.79 -999 -999 -999 -999 -999
2009-01-29 08:12:10 51°16.676 2°52.779 -999 -999 -999 -999 -999
2009-01-29 08:12:15 51°16.691 2°52.769 -999 -999 -999 -999 -999
2009-01-29 08:12:20 51°16.705 2°52.758 -999 -999 -999 -999 -999
2009-01-29 08:12:25 51°16.721 2°52.747 -999 -999 -999 -999 -999
2009-01-29 08:12:30 51°16.735 2°52.737 -999 -999 -999 -999 -999
2009-01-29 08:12:35 51°16.75 2°52.726 -999 -999 -999 -999 -999
2009-01-29 08:12:40 51°16.765 2°52.715 -999 -999 -999 -999 -999
2009-01-29 08:12:45 51°16.78 2°52.705 -999 -999 -999 -999 -999
2009-01-29 08:12:50 51°16.794 2°52.694 -999 -999 -999 -999 -999
2009-01-29 08:12:54 51°16.806 2°52.686 -999 -999 -999 -999 -999
2009-01-29 08:13:00 51°16.824 2°52.673 -999 -999 -999 -999 -999
2009-01-29 08:13:05 51°16.839 2°52.662 -999 -999 -999 -999 -999
2009-01-29 08:13:10 51°16.853 2°52.652 -999 -999 -999 -999 -999
2009-01-29 08:13:15 51°16.868 2°52.641 -999 -999 -999 -999 -999
2009-01-29 08:13:20 51°16.883 2°52.63 -999 -999 -999 -999 -999
2009-01-29 08:13:25 51°16.898 2°52.62 -999 -999 -999 -999 -999
2009-01-29 08:13:30 51°16.912 2°52.609 -999 -999 -999 -999 -999
2009-01-29 08:13:35 51°16.927 2°52.598 -999 -999 -999 -999 -999
2009-01-29 08:13:40 51°16.942 2°52.587 -999 -999 -999 -999 -999
2009-01-29 08:13:45 51°16.956 2°52.576 -999 -999 -999 -999 -999
2009-01-29 08:13:50 51°16.971 2°52.565 -999 -999 -999 -999 -999
2009-01-29 08:13:55 51°16.986 2°52.554 -999 -999 -999 -999 -999
2009-01-29 08:14:00 51°17.001 2°52.543 -999 -999 -999 -999 -999
2009-01-29 08:14:05 51°17.016 2°52.533 -999 -999 -999 -999 -999
2009-01-29 08:14:10 51°17.03 2°52.522 -999 -999 -999 -999 -999
2009-01-29 08:14:15 51°17.045 2°52.512 -999 -999 -999 -999 -999
2009-01-29 08:14:20 51°17.06 2°52.501 -999 -999 -999 -999 -999
2009-01-29 08:14:25 51°17.075 2°52.491 -999 -999 -999 -999 -999
2009-01-29 08:14:30 51°17.089 2°52.48 -999 -999 -999 -999 -999
2009-01-29 08:14:35 51°17.104 2°52.469 -999 -999 -999 -999 -999
2009-01-29 08:14:40 51°17.119 2°52.458 -999 -999 -999 -999 -999
2009-01-29 08:14:45 51°17.133 2°52.446 -999 -999 -999 -999 -999
2009-01-29 08:14:50 51°17.148 2°52.435 -999 -999 -999 -999 -999
2009-01-29 08:14:55 51°17.163 2°52.424 -999 -999 -999 -999 -999
2009-01-29 08:15:00 51°17.177 2°52.413 -999 -999 -999 -999 -999
2009-01-29 08:15:05 51°17.192 2°52.401 -999 -999 -999 -999 -999
2009-01-29 08:15:10 51°17.206 2°52.39 -999 -999 -999 -999 -999
2009-01-29 08:15:14 51°17.218 2°52.381 -999 -999 -999 -999 -999
2009-01-29 08:15:20 51°17.235 2°52.364 -999 -999 -999 -999 -999
2009-01-29 08:15:25 51°17.249 2°52.351 -999 -999 -999 -999 -999
2009-01-29 08:15:30 51°17.262 2°52.335 -999 -999 -999 -999 -999
2009-01-29 08:15:35 51°17.276 2°52.32 -999 -999 -999 -999 -999
2009-01-29 08:15:40 51°17.289 2°52.304 -999 -999 -999 -999 -999
2009-01-29 08:15:45 51°17.302 2°52.288 -999 -999 -999 -999 -999
2009-01-29 08:15:50 51°17.315 2°52.271 -999 -999 -999 -999 -999
2009-01-29 08:15:55 51°17.327 2°52.253 -999 -999 -999 -999 -999
2009-01-29 08:16:00 51°17.34 2°52.236 -999 -999 -999 -999 -999
2009-01-29 08:16:05 51°17.352 2°52.218 -999 -999 -999 -999 -999
2009-01-29 08:16:10 51°17.365 2°52.2 -999 -999 -999 -999 -999
2009-01-29 08:16:15 51°17.377 2°52.182 -999 -999 -999 -999 -999
2009-01-29 08:16:20 51°17.389 2°52.164 -999 -999 -999 -999 -999
2009-01-29 08:16:25 51°17.401 2°52.145 -999 -999 -999 -999 -999
2009-01-29 08:16:30 51°17.414 2°52.127 -999 -999 -999 -999 -999
2009-01-29 08:16:35 51°17.426 2°52.109 -999 -999 -999 -999 -999
2009-01-29 08:16:40 51°17.438 2°52.09 -999 -999 -999 -999 -999
2009-01-29 08:16:45 51°17.45 2°52.071 -999 -999 -999 -999 -999
2009-01-29 08:16:50 51°17.462 2°52.053 -999 -999 -999 -999 -999
2009-01-29 08:16:55 51°17.474 2°52.034 -999 -999 -999 -999 -999
2009-01-29 08:17:00 51°17.487 2°52.016 -999 -999 -999 -999 -999
2009-01-29 08:17:05 51°17.499 2°51.998 -999 -999 -999 -999 -999
2009-01-29 08:17:10 51°17.511 2°51.979 -999 -999 -999 -999 -999
2009-01-29 08:17:14 51°17.521 2°51.964 -999 -999 -999 -999 -999
2009-01-29 08:17:20 51°17.535 2°51.941 -999 -999 -999 -999 -999
2009-01-29 08:17:25 51°17.547 2°51.923 -999 -999 -999 -999 -999
2009-01-29 08:17:30 51°17.558 2°51.903 -999 -999 -999 -999 -999
2009-01-29 08:17:35 51°17.57 2°51.884 -999 -999 -999 -999 -999
2009-01-29 08:17:40 51°17.582 2°51.864 -999 -999 -999 -999 -999
2009-01-29 08:17:45 51°17.593 2°51.845 -999 -999 -999 -999 -999
2009-01-29 08:17:50 51°17.605 2°51.826 -999 -999 -999 -999 -999
2009-01-29 08:17:54 51°17.614 2°51.81 -999 -999 -999 -999 -999
2009-01-29 08:18:00 51°17.628 2°51.787 -999 -999 -999 -999 -999
2009-01-29 08:18:05 51°17.639 2°51.768 -999 -999 -999 -999 -999
2009-01-29 08:18:10 51°17.651 2°51.749 -999 -999 -999 -999 -999
2009-01-29 08:18:15 51°17.662 2°51.73 -999 -999 -999 -999 -999
2009-01-29 08:18:20 51°17.674 2°51.711 -999 -999 -999 -999 -999
2009-01-29 08:18:25 51°17.686 2°51.692 -999 -999 -999 -999 -999
2009-01-29 08:18:30 51°17.698 2°51.674 -999 -999 -999 -999 -999
2009-01-29 08:18:35 51°17.709 2°51.655 -999 -999 -999 -999 -999
2009-01-29 08:18:40 51°17.721 2°51.636 -999 -999 -999 -999 -999
2009-01-29 08:18:45 51°17.733 2°51.617 -999 -999 -999 -999 -999
2009-01-29 08:18:49 51°17.742 2°51.602 -999 -999 -999 -999 -999
2009-01-29 08:18:55 51°17.756 2°51.579 -999 -999 -999 -999 -999
2009-01-29 08:19:00 51°17.768 2°51.561 -999 -999 -999 -999 -999
2009-01-29 08:19:05 51°17.78 2°51.542 -999 -999 -999 -999 -999
2009-01-29 08:19:10 51°17.792 2°51.523 -999 -999 -999 -999 -999
2009-01-29 08:19:15 51°17.804 2°51.504 -999 -999 -999 -999 -999
2009-01-29 08:19:20 51°17.815 2°51.486 -999 -999 -999 -999 -999
2009-01-29 08:19:25 51°17.827 2°51.467 -999 -999 -999 -999 -999
2009-01-29 08:19:30 51°17.839 2°51.448 -999 -999 -999 -999 -999
2009-01-29 08:19:34 51°17.849 2°51.433 -999 -999 -999 -999 -999
2009-01-29 08:19:40 51°17.864 2°51.411 -999 -999 -999 -999 -999
2009-01-29 08:19:45 51°17.876 2°51.392 -999 -999 -999 -999 -999
2009-01-29 08:19:50 51°17.888 2°51.373 -999 -999 -999 -999 -999
2009-01-29 08:19:55 51°17.9 2°51.354 -999 -999 -999 -999 -999
2009-01-29 08:20:00 51°17.911 2°51.335 -999 -999 -999 -999 -999
2009-01-29 08:20:05 51°17.924 2°51.316 -999 -999 -999 -999 -999
2009-01-29 08:20:10 51°17.936 2°51.297 -999 -999 -999 -999 -999
2009-01-29 08:20:15 51°17.948 2°51.278 -999 -999 -999 -999 -999
2009-01-29 08:20:20 51°17.96 2°51.258 -999 -999 -999 -999 -999
2009-01-29 08:20:25 51°17.972 2°51.239 -999 -999 -999 -999 -999
2009-01-29 08:20:30 51°17.984 2°51.22 -999 -999 -999 -999 -999
2009-01-29 08:20:35 51°17.996 2°51.201 -999 -999 -999 -999 -999
2009-01-29 08:20:40 51°18.008 2°51.182 -999 -999 -999 -999 -999
2009-01-29 08:20:45 51°18.02 2°51.162 -999 -999 -999 -999 -999
2009-01-29 08:20:50 51°18.032 2°51.143 -999 -999 -999 -999 -999
2009-01-29 08:20:55 51°18.044 2°51.125 -999 -999 -999 -999 -999
2009-01-29 08:21:00 51°18.057 2°51.105 -999 -999 -999 -999 -999
2009-01-29 08:21:05 51°18.069 2°51.087 -999 -999 -999 -999 -999
2009-01-29 08:21:10 51°18.081 2°51.067 -999 -999 -999 -999 -999
2009-01-29 08:21:15 51°18.093 2°51.048 -999 -999 -999 -999 -999
2009-01-29 08:21:20 51°18.105 2°51.029 -999 -999 -999 -999 -999
2009-01-29 08:21:25 51°18.118 2°51.01 -999 -999 -999 -999 -999
2009-01-29 08:21:29 51°18.127 2°50.995 -999 -999 -999 -999 -999
2009-01-29 08:21:35 51°18.142 2°50.972 -999 -999 -999 -999 -999
2009-01-29 08:21:40 51°18.154 2°50.953 -999 -999 -999 -999 -999
2009-01-29 08:21:45 51°18.166 2°50.934 -999 -999 -999 -999 -999
2009-01-29 08:21:50 51°18.179 2°50.915 -999 -999 -999 -999 -999
2009-01-29 08:21:54 51°18.188 2°50.9 -999 -999 -999 -999 -999
2009-01-29 08:22:00 51°18.203 2°50.877 -999 -999 -999 -999 -999
2009-01-29 08:22:05 51°18.215 2°50.857 -999 -999 -999 -999 -999
2009-01-29 08:22:10 51°18.227 2°50.839 -999 -999 -999 -999 -999
2009-01-29 08:22:14 51°18.237 2°50.824 -999 -999 -999 -999 -999
2009-01-29 08:22:20 51°18.253 2°50.802 -999 -999 -999 -999 -999
2009-01-29 08:22:25 51°18.265 2°50.783 -999 -999 -999 -999 -999
2009-01-29 08:22:30 51°18.278 2°50.765 -999 -999 -999 -999 -999
2009-01-29 08:22:35 51°18.291 2°50.747 -999 -999 -999 -999 -999
2009-01-29 08:22:40 51°18.303 2°50.729 -999 -999 -999 -999 -999
2009-01-29 08:22:45 51°18.316 2°50.71 -999 -999 -999 -999 -999
2009-01-29 08:22:50 51°18.329 2°50.692 -999 -999 -999 -999 -999
2009-01-29 08:22:55 51°18.342 2°50.674 -999 -999 -999 -999 -999
2009-01-29 08:23:00 51°18.355 2°50.656 -999 -999 -999 -999 -999
2009-01-29 08:23:05 51°18.367 2°50.637 -999 -999 -999 -999 -999
2009-01-29 08:23:10 51°18.38 2°50.619 -999 -999 -999 -999 -999
2009-01-29 08:23:15 51°18.393 2°50.6 -999 -999 -999 -999 -999
2009-01-29 08:23:20 51°18.405 2°50.581 -999 -999 -999 -999 -999
2009-01-29 08:23:25 51°18.417 2°50.562 -999 -999 -999 -999 -999
2009-01-29 08:23:30 51°18.429 2°50.542 -999 -999 -999 -999 -999
2009-01-29 08:23:35 51°18.441 2°50.523 -999 -999 -999 -999 -999
2009-01-29 08:23:40 51°18.453 2°50.503 -999 -999 -999 -999 -999
2009-01-29 08:23:45 51°18.465 2°50.484 -999 -999 -999 -999 -999
2009-01-29 08:23:50 51°18.477 2°50.464 -999 -999 -999 -999 -999
2009-01-29 08:23:55 51°18.49 2°50.446 -999 -999 -999 -999 -999
2009-01-29 08:24:00 51°18.502 2°50.426 -999 -999 -999 -999 -999
2009-01-29 08:24:05 51°18.514 2°50.407 -999 -999 -999 -999 -999
2009-01-29 08:24:10 51°18.527 2°50.389 -999 -999 -999 -999 -999
2009-01-29 08:24:15 51°18.539 2°50.37 -999 -999 -999 -999 -999
2009-01-29 08:24:20 51°18.551 2°50.35 -999 -999 -999 -999 -999
2009-01-29 08:24:25 51°18.564 2°50.331 -999 -999 -999 -999 -999
2009-01-29 08:24:30 51°18.576 2°50.311 -999 -999 -999 -999 -999
2009-01-29 08:24:34 51°18.585 2°50.295 -999 -999 -999 -999 -999
2009-01-29 08:24:40 51°18.6 2°50.272 -999 -999 -999 -999 -999
2009-01-29 08:24:45 51°18.611 2°50.252 -999 -999 -999 -999 -999
2009-01-29 08:24:50 51°18.624 2°50.233 -999 -999 -999 -999 -999
2009-01-29 08:24:55 51°18.636 2°50.214 -999 -999 -999 -999 -999
2009-01-29 08:25:00 51°18.649 2°50.195 -999 -999 -999 -999 -999
2009-01-29 08:25:05 51°18.661 2°50.176 -999 -999 -999 -999 -999
2009-01-29 08:25:10 51°18.674 2°50.157 -999 -999 -999 -999 -999
2009-01-29 08:25:15 51°18.686 2°50.139 -999 -999 -999 -999 -999
2009-01-29 08:25:20 51°18.699 2°50.12 -999 -999 -999 -999 -999
2009-01-29 08:25:25 51°18.712 2°50.102 -999 -999 -999 -999 -999
2009-01-29 08:25:30 51°18.724 2°50.083 -999 -999 -999 -999 -999
2009-01-29 08:25:35 51°18.737 2°50.064 -999 -999 -999 -999 -999
2009-01-29 08:25:40 51°18.75 2°50.046 -999 -999 -999 -999 -999
2009-01-29 08:25:45 51°18.762 2°50.027 -999 -999 -999 -999 -999
2009-01-29 08:25:49 51°18.773 2°50.013 -999 -999 -999 -999 -999
2009-01-29 08:25:55 51°18.788 2°49.99 -999 -999 -999 -999 -999
2009-01-29 08:26:00 51°18.801 2°49.971 -999 -999 -999 -999 -999
2009-01-29 08:26:05 51°18.813 2°49.952 -999 -999 -999 -999 -999
2009-01-29 08:26:10 51°18.826 2°49.934 -999 -999 -999 -999 -999
2009-01-29 08:26:15 51°18.838 2°49.915 -999 -999 -999 -999 -999
2009-01-29 08:26:20 51°18.85 2°49.895 -999 -999 -999 -999 -999
2009-01-29 08:26:25 51°18.862 2°49.876 -999 -999 -999 -999 -999
2009-01-29 08:26:30 51°18.875 2°49.856 -999 -999 -999 -999 -999
2009-01-29 08:26:34 51°18.884 2°49.841 -999 -999 -999 -999 -999
2009-01-29 08:26:40 51°18.899 2°49.817 -999 -999 -999 -999 -999
2009-01-29 08:26:45 51°18.911 2°49.799 -999 -999 -999 -999 -999
2009-01-29 08:26:50 51°18.923 2°49.779 -999 -999 -999 -999 -999
2009-01-29 08:26:55 51°18.935 2°49.759 -999 -999 -999 -999 -999
2009-01-29 08:27:00 51°18.947 2°49.739 -999 -999 -999 -999 -999
2009-01-29 08:27:05 51°18.959 2°49.72 -999 -999 -999 -999 -999
2009-01-29 08:27:10 51°18.972 2°49.7 -999 -999 -999 -999 -999
2009-01-29 08:27:15 51°18.984 2°49.681 -999 -999 -999 -999 -999
2009-01-29 08:27:20 51°18.996 2°49.662 -999 -999 -999 -999 -999
2009-01-29 08:27:25 51°19.008 2°49.642 -999 -999 -999 -999 -999
2009-01-29 08:27:30 51°19.021 2°49.623 -999 -999 -999 -999 -999
2009-01-29 08:27:35 51°19.033 2°49.604 -999 -999 -999 -999 -999
2009-01-29 08:27:40 51°19.046 2°49.585 -999 -999 -999 -999 -999
2009-01-29 08:27:45 51°19.059 2°49.566 -999 -999 -999 -999 -999
2009-01-29 08:27:50 51°19.071 2°49.547 -999 -999 -999 -999 -999
2009-01-29 08:27:55 51°19.084 2°49.528 -999 -999 -999 -999 -999
2009-01-29 08:28:00 51°19.097 2°49.509 -999 -999 -999 -999 -999
2009-01-29 08:28:05 51°19.11 2°49.49 -999 -999 -999 -999 -999
2009-01-29 08:28:10 51°19.123 2°49.471 -999 -999 -999 -999 -999
2009-01-29 08:28:15 51°19.135 2°49.452 -999 -999 -999 -999 -999
2009-01-29 08:28:20 51°19.149 2°49.434 -999 -999 -999 -999 -999
2009-01-29 08:28:25 51°19.161 2°49.415 -999 -999 -999 -999 -999
2009-01-29 08:28:30 51°19.174 2°49.396 -999 -999 -999 -999 -999
2009-01-29 08:28:35 51°19.187 2°49.378 -999 -999 -999 -999 -999
2009-01-29 08:28:40 51°19.2 2°49.359 -999 -999 -999 -999 -999
2009-01-29 08:28:45 51°19.212 2°49.34 -999 -999 -999 -999 -999
2009-01-29 08:28:50 51°19.225 2°49.321 -999 -999 -999 -999 -999
2009-01-29 08:28:54 51°19.236 2°49.306 -999 -999 -999 -999 -999
2009-01-29 08:29:00 51°19.251 2°49.284 -999 -999 -999 -999 -999
2009-01-29 08:29:05 51°19.265 2°49.266 -999 -999 -999 -999 -999
2009-01-29 08:29:10 51°19.278 2°49.247 -999 -999 -999 -999 -999
2009-01-29 08:29:15 51°19.291 2°49.229 -999 -999 -999 -999 -999
2009-01-29 08:29:20 51°19.304 2°49.21 -999 -999 -999 -999 -999
2009-01-29 08:29:25 51°19.317 2°49.192 -999 -999 -999 -999 -999
2009-01-29 08:29:30 51°19.33 2°49.173 -999 -999 -999 -999 -999
2009-01-29 08:29:35 51°19.343 2°49.154 -999 -999 -999 -999 -999
2009-01-29 08:29:40 51°19.356 2°49.136 -999 -999 -999 -999 -999
2009-01-29 08:29:45 51°19.369 2°49.117 -999 -999 -999 -999 -999
2009-01-29 08:29:50 51°19.382 2°49.099 -999 -999 -999 -999 -999
2009-01-29 08:29:55 51°19.395 2°49.08 -999 -999 -999 -999 -999
2009-01-29 08:30:00 51°19.409 2°49.062 -999 -999 -999 -999 -999
2009-01-29 08:30:05 51°19.422 2°49.044 -999 -999 -999 -999 -999
2009-01-29 08:30:10 51°19.436 2°49.027 -999 -999 -999 -999 -999
2009-01-29 08:30:15 51°19.449 2°49.009 -999 -999 -999 -999 -999
2009-01-29 08:30:20 51°19.462 2°48.991 -999 -999 -999 -999 -999
2009-01-29 08:30:25 51°19.476 2°48.973 -999 -999 -999 -999 -999
2009-01-29 08:30:30 51°19.489 2°48.956 -999 -999 -999 -999 -999
2009-01-29 08:30:35 51°19.503 2°48.938 -999 -999 -999 -999 -999
2009-01-29 08:30:40 51°19.516 2°48.92 -999 -999 -999 -999 -999
2009-01-29 08:30:45 51°19.529 2°48.901 -999 -999 -999 -999 -999
2009-01-29 08:30:50 51°19.543 2°48.884 -999 -999 -999 -999 -999
2009-01-29 08:30:55 51°19.556 2°48.865 -999 -999 -999 -999 -999
2009-01-29 08:31:00 51°19.569 2°48.847 -999 -999 -999 -999 -999
2009-01-29 08:31:05 51°19.582 2°48.829 -999 -999 -999 -999 -999
2009-01-29 08:31:10 51°19.595 2°48.811 -999 -999 -999 -999 -999
2009-01-29 08:31:14 51°19.606 2°48.796 -999 -999 -999 -999 -999
2009-01-29 08:31:20 51°19.621 2°48.774 -999 -999 -999 -999 -999
2009-01-29 08:31:25 51°19.635 2°48.755 -999 -999 -999 -999 -999
2009-01-29 08:31:30 51°19.647 2°48.737 -999 -999 -999 -999 -999
2009-01-29 08:31:35 51°19.661 2°48.718 -999 -999 -999 -999 -999
2009-01-29 08:31:40 51°19.674 2°48.7 -999 -999 -999 -999 -999
2009-01-29 08:31:45 51°19.687 2°48.681 -999 -999 -999 -999 -999
2009-01-29 08:31:50 51°19.7 2°48.662 -999 -999 -999 -999 -999
2009-01-29 08:31:55 51°19.712 2°48.643 -999 -999 -999 -999 -999
2009-01-29 08:32:00 51°19.725 2°48.624 -999 -999 -999 -999 -999
2009-01-29 08:32:05 51°19.738 2°48.606 -999 -999 -999 -999 -999
2009-01-29 08:32:10 51°19.751 2°48.587 -999 -999 -999 -999 -999
2009-01-29 08:32:15 51°19.764 2°48.568 -999 -999 -999 -999 -999
2009-01-29 08:32:20 51°19.777 2°48.55 -999 -999 -999 -999 -999
2009-01-29 08:32:25 51°19.79 2°48.531 -999 -999 -999 -999 -999
2009-01-29 08:32:30 51°19.803 2°48.512 -999 -999 -999 -999 -999
2009-01-29 08:32:35 51°19.815 2°48.493 -999 -999 -999 -999 -999
2009-01-29 08:32:40 51°19.828 2°48.473 -999 -999 -999 -999 -999
2009-01-29 08:32:45 51°19.841 2°48.454 -999 -999 -999 -999 -999
2009-01-29 08:32:50 51°19.853 2°48.434 -999 -999 -999 -999 -999
2009-01-29 08:32:55 51°19.865 2°48.414 -999 -999 -999 -999 -999
2009-01-29 08:33:00 51°19.877 2°48.394 -999 -999 -999 -999 -999
2009-01-29 08:33:05 51°19.89 2°48.374 -999 -999 -999 -999 -999
2009-01-29 08:33:10 51°19.902 2°48.354 -999 -999 -999 -999 -999
2009-01-29 08:33:14 51°19.912 2°48.339 -999 -999 -999 -999 -999
2009-01-29 08:33:20 51°19.927 2°48.316 -999 -999 -999 -999 -999
2009-01-29 08:33:25 51°19.94 2°48.297 -999 -999 -999 -999 -999
2009-01-29 08:33:30 51°19.952 2°48.278 -999 -999 -999 -999 -999
2009-01-29 08:33:35 51°19.965 2°48.26 -999 -999 -999 -999 -999
2009-01-29 08:33:40 51°19.978 2°48.242 -999 -999 -999 -999 -999
2009-01-29 08:33:45 51°19.991 2°48.223 -999 -999 -999 -999 -999
2009-01-29 08:33:50 51°20.004 2°48.204 -999 -999 -999 -999 -999
2009-01-29 08:33:55 51°20.016 2°48.185 -999 -999 -999 -999 -999
2009-01-29 08:34:00 51°20.029 2°48.167 -999 -999 -999 -999 -999
2009-01-29 08:34:05 51°20.042 2°48.148 -999 -999 -999 -999 -999
2009-01-29 08:34:10 51°20.055 2°48.129 -999 -999 -999 -999 -999
2009-01-29 08:34:15 51°20.068 2°48.111 -999 -999 -999 -999 -999
2009-01-29 08:34:20 51°20.081 2°48.093 -999 -999 -999 -999 -999
2009-01-29 08:34:25 51°20.094 2°48.075 -999 -999 -999 -999 -999
2009-01-29 08:34:30 51°20.106 2°48.056 -999 -999 -999 -999 -999
2009-01-29 08:34:35 51°20.119 2°48.038 -999 -999 -999 -999 -999
2009-01-29 08:34:40 51°20.132 2°48.019 -999 -999 -999 -999 -999
2009-01-29 08:34:45 51°20.145 2°48.001 -999 -999 -999 -999 -999
2009-01-29 08:34:50 51°20.158 2°47.984 -999 -999 -999 -999 -999
2009-01-29 08:34:55 51°20.171 2°47.965 -999 -999 -999 -999 -999
2009-01-29 08:35:00 51°20.184 2°47.947 -999 -999 -999 -999 -999
2009-01-29 08:35:05 51°20.197 2°47.929 -999 -999 -999 -999 -999
2009-01-29 08:35:10 51°20.211 2°47.911 -999 -999 -999 -999 -999
2009-01-29 08:35:15 51°20.224 2°47.894 -999 -999 -999 -999 -999
2009-01-29 08:35:20 51°20.238 2°47.876 -999 -999 -999 -999 -999
2009-01-29 08:35:25 51°20.251 2°47.859 -999 -999 -999 -999 -999
2009-01-29 08:35:30 51°20.265 2°47.841 -999 -999 -999 -999 -999
2009-01-29 08:35:35 51°20.278 2°47.823 -999 -999 -999 -999 -999
2009-01-29 08:35:40 51°20.292 2°47.806 -999 -999 -999 -999 -999
2009-01-29 08:35:45 51°20.306 2°47.788 -999 -999 -999 -999 -999
2009-01-29 08:35:50 51°20.319 2°47.77 -999 -999 -999 -999 -999
2009-01-29 08:35:55 51°20.333 2°47.753 -999 -999 -999 -999 -999
2009-01-29 08:36:00 51°20.347 2°47.735 -999 -999 -999 -999 -999
2009-01-29 08:36:05 51°20.36 2°47.717 -999 -999 -999 -999 -999
2009-01-29 08:36:10 51°20.374 2°47.699 -999 -999 -999 -999 -999
2009-01-29 08:36:15 51°20.387 2°47.68 -999 -999 -999 -999 -999
2009-01-29 08:36:20 51°20.401 2°47.662 -999 -999 -999 -999 -999
2009-01-29 08:36:25 51°20.414 2°47.644 -999 -999 -999 -999 -999
2009-01-29 08:36:30 51°20.428 2°47.626 -999 -999 -999 -999 -999
2009-01-29 08:36:35 51°20.441 2°47.607 -999 -999 -999 -999 -999
2009-01-29 08:36:40 51°20.455 2°47.589 -999 -999 -999 -999 -999
2009-01-29 08:36:45 51°20.468 2°47.57 -999 -999 -999 -999 -999
2009-01-29 08:36:50 51°20.482 2°47.552 -999 -999 -999 -999 -999
2009-01-29 08:36:55 51°20.495 2°47.533 -999 -999 -999 -999 -999
2009-01-29 08:37:00 51°20.509 2°47.515 -999 -999 -999 -999 -999
2009-01-29 08:37:05 51°20.522 2°47.497 -999 -999 -999 -999 -999
2009-01-29 08:37:10 51°20.536 2°47.479 -999 -999 -999 -999 -999
2009-01-29 08:37:15 51°20.549 2°47.46 -999 -999 -999 -999 -999
2009-01-29 08:37:20 51°20.562 2°47.441 -999 -999 -999 -999 -999
2009-01-29 08:37:25 51°20.575 2°47.421 -999 -999 -999 -999 -999
2009-01-29 08:37:30 51°20.589 2°47.402 -999 -999 -999 -999 -999
2009-01-29 08:37:35 51°20.601 2°47.383 -999 -999 -999 -999 -999
2009-01-29 08:37:40 51°20.614 2°47.363 -999 -999 -999 -999 -999
2009-01-29 08:37:45 51°20.627 2°47.343 -999 -999 -999 -999 -999
2009-01-29 08:37:50 51°20.64 2°47.324 -999 -999 -999 -999 -999
2009-01-29 08:37:55 51°20.653 2°47.304 -999 -999 -999 -999 -999
2009-01-29 08:38:00 51°20.666 2°47.284 -999 -999 -999 -999 -999
2009-01-29 08:38:05 51°20.679 2°47.265 -999 -999 -999 -999 -999
2009-01-29 08:38:10 51°20.693 2°47.245 -999 -999 -999 -999 -999
2009-01-29 08:38:15 51°20.706 2°47.225 -999 -999 -999 -999 -999
2009-01-29 08:38:20 51°20.719 2°47.206 -999 -999 -999 -999 -999
2009-01-29 08:38:25 51°20.732 2°47.186 -999 -999 -999 -999 -999
2009-01-29 08:38:30 51°20.746 2°47.167 -999 -999 -999 -999 -999
2009-01-29 08:38:35 51°20.759 2°47.148 -999 -999 -999 -999 -999
2009-01-29 08:38:40 51°20.772 2°47.128 -999 -999 -999 -999 -999
2009-01-29 08:38:45 51°20.786 2°47.109 -999 -999 -999 -999 -999
2009-01-29 08:38:50 51°20.799 2°47.091 -999 -999 -999 -999 -999
2009-01-29 08:38:55 51°20.814 2°47.075 -999 -999 -999 -999 -999
2009-01-29 08:39:00 51°20.828 2°47.058 -999 -999 -999 -999 -999
2009-01-29 08:39:05 51°20.843 2°47.043 -999 -999 -999 -999 -999
2009-01-29 08:39:10 51°20.857 2°47.027 -999 -999 -999 -999 -999
2009-01-29 08:39:15 51°20.872 2°47.013 -999 -999 -999 -999 -999
2009-01-29 08:39:20 51°20.887 2°46.999 -999 -999 -999 -999 -999
2009-01-29 08:39:25 51°20.903 2°46.985 -999 -999 -999 -999 -999
2009-01-29 08:39:30 51°20.919 2°46.975 -999 -999 -999 -999 -999
2009-01-29 08:39:35 51°20.934 2°46.964 -999 -999 -999 -999 -999
2009-01-29 08:39:40 51°20.95 2°46.956 -999 -999 -999 -999 -999
2009-01-29 08:39:45 51°20.967 2°46.948 -999 -999 -999 -999 -999
2009-01-29 08:39:50 51°20.983 2°46.941 -999 -999 -999 -999 -999
2009-01-29 08:39:54 51°20.996 2°46.935 -999 -999 -999 -999 -999
2009-01-29 08:40:00 51°21.016 2°46.928 -999 -999 -999 -999 -999
2009-01-29 08:40:05 51°21.032 2°46.922 -999 -999 -999 -999 -999
2009-01-29 08:40:10 51°21.049 2°46.917 -999 -999 -999 -999 -999
2009-01-29 08:40:15 51°21.065 2°46.911 -999 -999 -999 -999 -999
2009-01-29 08:40:20 51°21.082 2°46.907 -999 -999 -999 -999 -999
2009-01-29 08:40:25 51°21.098 2°46.901 -999 -999 -999 -999 -999
2009-01-29 08:40:30 51°21.115 2°46.896 -999 -999 -999 -999 -999
2009-01-29 08:40:35 51°21.131 2°46.891 -999 -999 -999 -999 -999
2009-01-29 08:40:40 51°21.148 2°46.886 -999 -999 -999 -999 -999
2009-01-29 08:40:45 51°21.165 2°46.881 -999 -999 -999 -999 -999
2009-01-29 08:40:50 51°21.181 2°46.876 -999 -999 -999 -999 -999
2009-01-29 08:40:55 51°21.198 2°46.871 -999 -999 -999 -999 -999
2009-01-29 08:41:00 51°21.214 2°46.866 -999 -999 -999 -999 -999
2009-01-29 08:41:05 51°21.231 2°46.86 -999 -999 -999 -999 -999
2009-01-29 08:41:10 51°21.247 2°46.855 -999 -999 -999 -999 -999
2009-01-29 08:41:15 51°21.264 2°46.851 -999 -999 -999 -999 -999
2009-01-29 08:41:20 51°21.281 2°46.845 -999 -999 -999 -999 -999
2009-01-29 08:41:25 51°21.297 2°46.84 -999 -999 -999 -999 -999
2009-01-29 08:41:30 51°21.314 2°46.835 -999 -999 -999 -999 -999
2009-01-29 08:41:35 51°21.33 2°46.83 -999 -999 -999 -999 -999
2009-01-29 08:41:40 51°21.347 2°46.824 -999 -999 -999 -999 -999
2009-01-29 08:41:45 51°21.363 2°46.819 -999 -999 -999 -999 -999
2009-01-29 08:41:50 51°21.38 2°46.815 -999 -999 -999 -999 -999
2009-01-29 08:41:55 51°21.396 2°46.811 -999 -999 -999 -999 -999
2009-01-29 08:42:00 51°21.413 2°46.807 -999 -999 -999 -999 -999
2009-01-29 08:42:05 51°21.429 2°46.804 -999 -999 -999 -999 -999
2009-01-29 08:42:10 51°21.446 2°46.8 -999 -999 -999 -999 -999
2009-01-29 08:42:15 51°21.462 2°46.798 -999 -999 -999 -999 -999
2009-01-29 08:42:20 51°21.479 2°46.795 -999 -999 -999 -999 -999
2009-01-29 08:42:25 51°21.495 2°46.793 -999 -999 -999 -999 -999
2009-01-29 08:42:30 51°21.512 2°46.79 -999 -999 -999 -999 -999
2009-01-29 08:42:35 51°21.529 2°46.788 -999 -999 -999 -999 -999
2009-01-29 08:42:40 51°21.545 2°46.785 -999 -999 -999 -999 -999
2009-01-29 08:42:45 51°21.562 2°46.783 -999 -999 -999 -999 -999
2009-01-29 08:42:50 51°21.578 2°46.781 -999 -999 -999 -999 -999
2009-01-29 08:42:55 51°21.595 2°46.778 -999 -999 -999 -999 -999
2009-01-29 08:43:00 51°21.611 2°46.776 -999 -999 -999 -999 -999
2009-01-29 08:43:05 51°21.628 2°46.773 -999 -999 -999 -999 -999
2009-01-29 08:43:10 51°21.644 2°46.771 -999 -999 -999 -999 -999
2009-01-29 08:43:15 51°21.661 2°46.768 -999 -999 -999 -999 -999
2009-01-29 08:43:20 51°21.678 2°46.765 -999 -999 -999 -999 -999
2009-01-29 08:43:25 51°21.694 2°46.762 -999 -999 -999 -999 -999
2009-01-29 08:43:30 51°21.711 2°46.757 -999 -999 -999 -999 -999
2009-01-29 08:43:35 51°21.727 2°46.752 -999 -999 -999 -999 -999
2009-01-29 08:43:40 51°21.743 2°46.743 -999 -999 -999 -999 -999
2009-01-29 08:43:45 51°21.759 2°46.736 -999 -999 -999 -999 -999
2009-01-29 08:43:50 51°21.775 2°46.725 -999 -999 -999 -999 -999
2009-01-29 08:43:55 51°21.791 2°46.715 -999 -999 -999 -999 -999
2009-01-29 08:44:00 51°21.806 2°46.702 -999 -999 -999 -999 -999
2009-01-29 08:44:05 51°21.821 2°46.689 -999 -999 -999 -999 -999
2009-01-29 08:44:10 51°21.836 2°46.674 -999 -999 -999 -999 -999
2009-01-29 08:44:15 51°21.851 2°46.659 -999 -999 -999 -999 -999
2009-01-29 08:44:20 51°21.865 2°46.643 -999 -999 -999 -999 -999
2009-01-29 08:44:25 51°21.879 2°46.627 -999 -999 -999 -999 -999
2009-01-29 08:44:30 51°21.893 2°46.608 -999 -999 -999 -999 -999
2009-01-29 08:44:35 51°21.906 2°46.59 -999 -999 -999 -999 -999
2009-01-29 08:44:40 51°21.919 2°46.57 -999 -999 -999 -999 -999
2009-01-29 08:44:45 51°21.931 2°46.549 -999 -999 -999 -999 -999
2009-01-29 08:44:50 51°21.944 2°46.529 -999 -999 -999 -999 -999
2009-01-29 08:44:55 51°21.956 2°46.508 -999 -999 -999 -999 -999
2009-01-29 08:45:00 51°21.968 2°46.486 -999 -999 -999 -999 -999
2009-01-29 08:45:05 51°21.98 2°46.465 -999 -999 -999 -999 -999
2009-01-29 08:45:10 51°21.992 2°46.443 -999 -999 -999 -999 -999
2009-01-29 08:45:15 51°22.003 2°46.421 -999 -999 -999 -999 -999
2009-01-29 08:45:20 51°22.015 2°46.399 -999 -999 -999 -999 -999
2009-01-29 08:45:25 51°22.026 2°46.377 -999 -999 -999 -999 -999
2009-01-29 08:45:30 51°22.038 2°46.355 -999 -999 -999 -999 -999
2009-01-29 08:45:35 51°22.05 2°46.333 -999 -999 -999 -999 -999
2009-01-29 08:45:40 51°22.061 2°46.311 -999 -999 -999 -999 -999
2009-01-29 08:45:45 51°22.073 2°46.289 -999 -999 -999 -999 -999
2009-01-29 08:45:50 51°22.084 2°46.267 -999 -999 -999 -999 -999
2009-01-29 08:45:55 51°22.096 2°46.246 -999 -999 -999 -999 -999
2009-01-29 08:46:00 51°22.108 2°46.224 -999 -999 -999 -999 -999
2009-01-29 08:46:05 51°22.119 2°46.202 -999 -999 -999 -999 -999
2009-01-29 08:46:10 51°22.13 2°46.18 -999 -999 -999 -999 -999
2009-01-29 08:46:15 51°22.142 2°46.158 -999 -999 -999 -999 -999
2009-01-29 08:46:20 51°22.153 2°46.136 -999 -999 -999 -999 -999
2009-01-29 08:46:25 51°22.164 2°46.115 -999 -999 -999 -999 -999
2009-01-29 08:46:30 51°22.176 2°46.093 -999 -999 -999 -999 -999
2009-01-29 08:46:35 51°22.187 2°46.071 -999 -999 -999 -999 -999
2009-01-29 08:46:40 51°22.199 2°46.05 -999 -999 -999 -999 -999
2009-01-29 08:46:45 51°22.21 2°46.028 -999 -999 -999 -999 -999
2009-01-29 08:46:50 51°22.222 2°46.007 -999 -999 -999 -999 -999
2009-01-29 08:46:55 51°22.234 2°45.986 -999 -999 -999 -999 -999
2009-01-29 08:47:00 51°22.246 2°45.965 -999 -999 -999 -999 -999
2009-01-29 08:47:05 51°22.257 2°45.943 -999 -999 -999 -999 -999
2009-01-29 08:47:10 51°22.269 2°45.922 -999 -999 -999 -999 -999
2009-01-29 08:47:14 51°22.279 2°45.906 -999 -999 -999 -999 -999
2009-01-29 08:47:20 51°22.293 2°45.88 -999 -999 -999 -999 -999
2009-01-29 08:47:25 51°22.305 2°45.859 -999 -999 -999 -999 -999
2009-01-29 08:47:30 51°22.317 2°45.838 -999 -999 -999 -999 -999
2009-01-29 08:47:35 51°22.329 2°45.818 -999 -999 -999 -999 -999
2009-01-29 08:47:40 51°22.341 2°45.796 -999 -999 -999 -999 -999
2009-01-29 08:47:45 51°22.353 2°45.776 -999 -999 -999 -999 -999
2009-01-29 08:47:50 51°22.365 2°45.755 -999 -999 -999 -999 -999
2009-01-29 08:47:55 51°22.377 2°45.734 -999 -999 -999 -999 -999
2009-01-29 08:48:00 51°22.389 2°45.713 -999 -999 -999 -999 -999
2009-01-29 08:48:05 51°22.401 2°45.693 -999 -999 -999 -999 -999
2009-01-29 08:48:10 51°22.412 2°45.672 -999 -999 -999 -999 -999
2009-01-29 08:48:15 51°22.424 2°45.651 -999 -999 -999 -999 -999
2009-01-29 08:48:20 51°22.436 2°45.63 -999 -999 -999 -999 -999
2009-01-29 08:48:25 51°22.448 2°45.61 -999 -999 -999 -999 -999
2009-01-29 08:48:30 51°22.46 2°45.59 -999 -999 -999 -999 -999
2009-01-29 08:48:35 51°22.472 2°45.569 -999 -999 -999 -999 -999
2009-01-29 08:48:40 51°22.483 2°45.549 -999 -999 -999 -999 -999
2009-01-29 08:48:45 51°22.495 2°45.528 -999 -999 -999 -999 -999
2009-01-29 08:48:50 51°22.507 2°45.507 -999 -999 -999 -999 -999
2009-01-29 08:48:55 51°22.518 2°45.486 -999 -999 -999 -999 -999
2009-01-29 08:49:00 51°22.53 2°45.465 -999 -999 -999 -999 -999
2009-01-29 08:49:05 51°22.542 2°45.443 -999 -999 -999 -999 -999
2009-01-29 08:49:10 51°22.553 2°45.422 -999 -999 -999 -999 -999
2009-01-29 08:49:15 51°22.564 2°45.4 -999 -999 -999 -999 -999
2009-01-29 08:49:20 51°22.575 2°45.378 -999 -999 -999 -999 -999
2009-01-29 08:49:25 51°22.586 2°45.357 -999 -999 -999 -999 -999
2009-01-29 08:49:30 51°22.598 2°45.335 -999 -999 -999 -999 -999
2009-01-29 08:49:35 51°22.609 2°45.313 -999 -999 -999 -999 -999
2009-01-29 08:49:40 51°22.62 2°45.292 -999 -999 -999 -999 -999
2009-01-29 08:49:45 51°22.632 2°45.27 -999 -999 -999 -999 -999
2009-01-29 08:49:50 51°22.643 2°45.249 -999 -999 -999 -999 -999
2009-01-29 08:49:55 51°22.654 2°45.227 -999 -999 -999 -999 -999
2009-01-29 08:50:00 51°22.666 2°45.206 -999 -999 -999 -999 -999
2009-01-29 08:50:05 51°22.677 2°45.184 -999 -999 -999 -999 -999
2009-01-29 08:50:10 51°22.689 2°45.163 -999 -999 -999 -999 -999
2009-01-29 08:50:15 51°22.7 2°45.141 -999 -999 -999 -999 -999
2009-01-29 08:50:20 51°22.711 2°45.119 -999 -999 -999 -999 -999
2009-01-29 08:50:25 51°22.723 2°45.098 -999 -999 -999 -999 -999
2009-01-29 08:50:30 51°22.734 2°45.076 -999 -999 -999 -999 -999
2009-01-29 08:50:35 51°22.745 2°45.055 -999 -999 -999 -999 -999
2009-01-29 08:50:40 51°22.757 2°45.033 -999 -999 -999 -999 -999
2009-01-29 08:50:45 51°22.768 2°45.012 -999 -999 -999 -999 -999
2009-01-29 08:50:50 51°22.78 2°44.99 -999 -999 -999 -999 -999
2009-01-29 08:50:55 51°22.792 2°44.969 -999 -999 -999 -999 -999
2009-01-29 08:51:00 51°22.804 2°44.949 -999 -999 -999 -999 -999
2009-01-29 08:51:05 51°22.816 2°44.928 -999 -999 -999 -999 -999
2009-01-29 08:51:10 51°22.828 2°44.907 -999 -999 -999 -999 -999
2009-01-29 08:51:15 51°22.84 2°44.887 -999 -999 -999 -999 -999
2009-01-29 08:51:20 51°22.852 2°44.866 -999 -999 -999 -999 -999
2009-01-29 08:51:25 51°22.864 2°44.845 -999 -999 -999 -999 -999
2009-01-29 08:51:30 51°22.876 2°44.824 -999 -999 -999 -999 -999
2009-01-29 08:51:35 51°22.887 2°44.803 -999 -999 -999 -999 -999
2009-01-29 08:51:40 51°22.899 2°44.781 -999 -999 -999 -999 -999
2009-01-29 08:51:45 51°22.91 2°44.76 -999 -999 -999 -999 -999
2009-01-29 08:51:50 51°22.922 2°44.739 -999 -999 -999 -999 -999
2009-01-29 08:51:55 51°22.934 2°44.718 -999 -999 -999 -999 -999
2009-01-29 08:52:00 51°22.946 2°44.697 -999 -999 -999 -999 -999
2009-01-29 08:52:05 51°22.958 2°44.676 -999 -999 -999 -999 -999
2009-01-29 08:52:10 51°22.97 2°44.656 -999 -999 -999 -999 -999
2009-01-29 08:52:15 51°22.982 2°44.634 -999 -999 -999 -999 -999
2009-01-29 08:52:20 51°22.994 2°44.614 -999 -999 -999 -999 -999
2009-01-29 08:52:25 51°23.006 2°44.592 -999 -999 -999 -999 -999
2009-01-29 08:52:30 51°23.017 2°44.572 -999 -999 -999 -999 -999
2009-01-29 08:52:35 51°23.029 2°44.551 -999 -999 -999 -999 -999
2009-01-29 08:52:40 51°23.042 2°44.53 -999 -999 -999 -999 -999
2009-01-29 08:52:45 51°23.054 2°44.51 -999 -999 -999 -999 -999
2009-01-29 08:52:50 51°23.066 2°44.489 -999 -999 -999 -999 -999
2009-01-29 08:52:55 51°23.078 2°44.469 -999 -999 -999 -999 -999
2009-01-29 08:53:00 51°23.09 2°44.448 -999 -999 -999 -999 -999
2009-01-29 08:53:05 51°23.102 2°44.427 -999 -999 -999 -999 -999
2009-01-29 08:53:10 51°23.114 2°44.407 -999 -999 -999 -999 -999
2009-01-29 08:53:15 51°23.125 2°44.385 -999 -999 -999 -999 -999
2009-01-29 08:53:20 51°23.137 2°44.365 -999 -999 -999 -999 -999
2009-01-29 08:53:25 51°23.149 2°44.345 -999 -999 -999 -999 -999
2009-01-29 08:53:30 51°23.161 2°44.324 -999 -999 -999 -999 -999
2009-01-29 08:53:35 51°23.173 2°44.304 -999 -999 -999 -999 -999
2009-01-29 08:53:40 51°23.185 2°44.283 -999 -999 -999 -999 -999
2009-01-29 08:53:45 51°23.196 2°44.262 -999 -999 -999 -999 -999
2009-01-29 08:53:50 51°23.208 2°44.242 -999 -999 -999 -999 -999
2009-01-29 08:53:55 51°23.22 2°44.221 -999 -999 -999 -999 -999
2009-01-29 08:54:00 51°23.232 2°44.2 -999 -999 -999 -999 -999
2009-01-29 08:54:05 51°23.244 2°44.179 -999 -999 -999 -999 -999
2009-01-29 08:54:10 51°23.256 2°44.159 -999 -999 -999 -999 -999
2009-01-29 08:54:15 51°23.268 2°44.138 -999 -999 -999 -999 -999
2009-01-29 08:54:20 51°23.28 2°44.118 -999 -999 -999 -999 -999
2009-01-29 08:54:25 51°23.292 2°44.097 -999 -999 -999 -999 -999
2009-01-29 08:54:30 51°23.303 2°44.076 -999 -999 -999 -999 -999
2009-01-29 08:54:35 51°23.315 2°44.055 -999 -999 -999 -999 -999
2009-01-29 08:54:40 51°23.327 2°44.035 -999 -999 -999 -999 -999
2009-01-29 08:54:45 51°23.339 2°44.014 -999 -999 -999 -999 -999
2009-01-29 08:54:50 51°23.351 2°43.994 -999 -999 -999 -999 -999
2009-01-29 08:54:55 51°23.363 2°43.973 -999 -999 -999 -999 -999
2009-01-29 08:55:00 51°23.375 2°43.953 -999 -999 -999 -999 -999
2009-01-29 08:55:05 51°23.387 2°43.931 -999 -999 -999 -999 -999
2009-01-29 08:55:10 51°23.398 2°43.909 -999 -999 -999 -999 -999
2009-01-29 08:55:15 51°23.409 2°43.888 -999 -999 -999 -999 -999
2009-01-29 08:55:20 51°23.421 2°43.866 -999 -999 -999 -999 -999
2009-01-29 08:55:25 51°23.432 2°43.844 -999 -999 -999 -999 -999
2009-01-29 08:55:30 51°23.443 2°43.822 -999 -999 -999 -999 -999
2009-01-29 08:55:35 51°23.454 2°43.801 -999 -999 -999 -999 -999
2009-01-29 08:55:40 51°23.465 2°43.779 -999 -999 -999 -999 -999
2009-01-29 08:55:45 51°23.477 2°43.757 -999 -999 -999 -999 -999
2009-01-29 08:55:50 51°23.488 2°43.735 -999 -999 -999 -999 -999
2009-01-29 08:55:55 51°23.499 2°43.713 -999 -999 -999 -999 -999
2009-01-29 08:56:00 51°23.51 2°43.692 -999 -999 -999 -999 -999
2009-01-29 08:56:05 51°23.521 2°43.67 -999 -999 -999 -999 -999
2009-01-29 08:56:10 51°23.533 2°43.648 -999 -999 -999 -999 -999
2009-01-29 08:56:15 51°23.544 2°43.627 -999 -999 -999 -999 -999
2009-01-29 08:56:20 51°23.555 2°43.605 -999 -999 -999 -999 -999
2009-01-29 08:56:25 51°23.567 2°43.584 -999 -999 -999 -999 -999
2009-01-29 08:56:30 51°23.578 2°43.562 -999 -999 -999 -999 -999
2009-01-29 08:56:35 51°23.59 2°43.541 -999 -999 -999 -999 -999
2009-01-29 08:56:40 51°23.601 2°43.52 -999 -999 -999 -999 -999
2009-01-29 08:56:45 51°23.613 2°43.498 -999 -999 -999 -999 -999
2009-01-29 08:56:50 51°23.624 2°43.477 -999 -999 -999 -999 -999
2009-01-29 08:56:55 51°23.635 2°43.455 -999 -999 -999 -999 -999
2009-01-29 08:57:00 51°23.647 2°43.434 -999 -999 -999 -999 -999
2009-01-29 08:57:05 51°23.658 2°43.413 -999 -999 -999 -999 -999
2009-01-29 08:57:10 51°23.669 2°43.392 -999 -999 -999 -999 -999
2009-01-29 08:57:15 51°23.681 2°43.37 -999 -999 -999 -999 -999
2009-01-29 08:57:20 51°23.692 2°43.349 -999 -999 -999 -999 -999
2009-01-29 08:57:25 51°23.703 2°43.328 -999 -999 -999 -999 -999
2009-01-29 08:57:30 51°23.715 2°43.307 -999 -999 -999 -999 -999
2009-01-29 08:57:35 51°23.727 2°43.286 -999 -999 -999 -999 -999
2009-01-29 08:57:40 51°23.739 2°43.266 -999 -999 -999 -999 -999
2009-01-29 08:57:45 51°23.751 2°43.245 -999 -999 -999 -999 -999
2009-01-29 08:57:50 51°23.762 2°43.224 -999 -999 -999 -999 -999
2009-01-29 08:57:55 51°23.775 2°43.205 -999 -999 -999 -999 -999
2009-01-29 08:58:00 51°23.787 2°43.184 -999 -999 -999 -999 -999
2009-01-29 08:58:05 51°23.798 2°43.164 -999 -999 -999 -999 -999
2009-01-29 08:58:10 51°23.81 2°43.142 -999 -999 -999 -999 -999
2009-01-29 08:58:14 51°23.819 2°43.125 -999 -999 -999 -999 -999
2009-01-29 08:58:20 51°23.833 2°43.1 -999 -999 -999 -999 -999
2009-01-29 08:58:25 51°23.845 2°43.079 -999 -999 -999 -999 -999
2009-01-29 08:58:30 51°23.857 2°43.058 -999 -999 -999 -999 -999
2009-01-29 08:58:35 51°23.868 2°43.038 -999 -999 -999 -999 -999
2009-01-29 08:58:40 51°23.881 2°43.017 -999 -999 -999 -999 -999
2009-01-29 08:58:45 51°23.893 2°42.997 -999 -999 -999 -999 -999
2009-01-29 08:58:50 51°23.905 2°42.977 -999 -999 -999 -999 -999
2009-01-29 08:58:55 51°23.917 2°42.957 -999 -999 -999 -999 -999
2009-01-29 08:59:00 51°23.929 2°42.937 -999 -999 -999 -999 -999
2009-01-29 08:59:05 51°23.941 2°42.917 -999 -999 -999 -999 -999
2009-01-29 08:59:10 51°23.953 2°42.896 -999 -999 -999 -999 -999
2009-01-29 08:59:15 51°23.965 2°42.876 -999 -999 -999 -999 -999
2009-01-29 08:59:20 51°23.976 2°42.854 -999 -999 -999 -999 -999
2009-01-29 08:59:25 51°23.988 2°42.833 -999 -999 -999 -999 -999
2009-01-29 08:59:30 51°23.999 2°42.812 -999 -999 -999 -999 -999
2009-01-29 08:59:35 51°24.011 2°42.791 -999 -999 -999 -999 -999
2009-01-29 08:59:40 51°24.022 2°42.771 -999 -999 -999 -999 -999
2009-01-29 08:59:45 51°24.034 2°42.749 -999 -999 -999 -999 -999
2009-01-29 08:59:50 51°24.045 2°42.728 -999 -999 -999 -999 -999
2009-01-29 08:59:55 51°24.057 2°42.708 -999 -999 -999 -999 -999
2009-01-29 09:00:00 51°24.069 2°42.687 -999 -999 -999 -999 -999
2009-01-29 09:00:05 51°24.081 2°42.667 -999 -999 -999 -999 -999
2009-01-29 09:00:10 51°24.093 2°42.646 -999 -999 -999 -999 -999
2009-01-29 09:00:15 51°24.105 2°42.626 -999 -999 -999 -999 -999
2009-01-29 09:00:20 51°24.116 2°42.605 -999 -999 -999 -999 -999
2009-01-29 09:00:25 51°24.128 2°42.585 -999 -999 -999 -999 -999
2009-01-29 09:00:30 51°24.14 2°42.565 -999 -999 -999 -999 -999
2009-01-29 09:00:34 51°24.15 2°42.549 -999 -999 -999 -999 -999
2009-01-29 09:00:40 51°24.164 2°42.524 -999 -999 -999 -999 -999
2009-01-29 09:00:45 51°24.176 2°42.505 -999 -999 -999 -999 -999
2009-01-29 09:00:50 51°24.188 2°42.484 -999 -999 -999 -999 -999
2009-01-29 09:00:55 51°24.2 2°42.463 -999 -999 -999 -999 -999
2009-01-29 09:01:00 51°24.211 2°42.442 -999 -999 -999 -999 -999
2009-01-29 09:01:05 51°24.223 2°42.421 -999 -999 -999 -999 -999
2009-01-29 09:01:10 51°24.234 2°42.399 -999 -999 -999 -999 -999
2009-01-29 09:01:15 51°24.245 2°42.378 -999 -999 -999 -999 -999
2009-01-29 09:01:20 51°24.256 2°42.356 -999 -999 -999 -999 -999
2009-01-29 09:01:25 51°24.268 2°42.336 -999 -999 -999 -999 -999
2009-01-29 09:01:30 51°24.279 2°42.314 -999 -999 -999 -999 -999
2009-01-29 09:01:35 51°24.291 2°42.294 -999 -999 -999 -999 -999
2009-01-29 09:01:40 51°24.303 2°42.273 -999 -999 -999 -999 -999
2009-01-29 09:01:45 51°24.315 2°42.253 -999 -999 -999 -999 -999
2009-01-29 09:01:50 51°24.327 2°42.232 -999 -999 -999 -999 -999
2009-01-29 09:01:55 51°24.339 2°42.212 -999 -999 -999 -999 -999
2009-01-29 09:02:00 51°24.35 2°42.192 -999 -999 -999 -999 -999
2009-01-29 09:02:05 51°24.362 2°42.171 -999 -999 -999 -999 -999
2009-01-29 09:02:10 51°24.374 2°42.151 -999 -999 -999 -999 -999
2009-01-29 09:02:15 51°24.386 2°42.131 -999 -999 -999 -999 -999
2009-01-29 09:02:20 51°24.398 2°42.111 -999 -999 -999 -999 -999
2009-01-29 09:02:25 51°24.409 2°42.09 -999 -999 -999 -999 -999
2009-01-29 09:02:30 51°24.421 2°42.07 -999 -999 -999 -999 -999
2009-01-29 09:02:35 51°24.432 2°42.049 -999 -999 -999 -999 -999
2009-01-29 09:02:40 51°24.444 2°42.028 -999 -999 -999 -999 -999
2009-01-29 09:02:45 51°24.455 2°42.007 -999 -999 -999 -999 -999
2009-01-29 09:02:50 51°24.466 2°41.986 -999 -999 -999 -999 -999
2009-01-29 09:02:55 51°24.477 2°41.965 -999 -999 -999 -999 -999
2009-01-29 09:03:00 51°24.488 2°41.943 -999 -999 -999 -999 -999
2009-01-29 09:03:05 51°24.5 2°41.922 -999 -999 -999 -999 -999
2009-01-29 09:03:10 51°24.511 2°41.902 -999 -999 -999 -999 -999
2009-01-29 09:03:15 51°24.523 2°41.881 -999 -999 -999 -999 -999
2009-01-29 09:03:20 51°24.534 2°41.861 -999 -999 -999 -999 -999
2009-01-29 09:03:25 51°24.546 2°41.84 -999 -999 -999 -999 -999
2009-01-29 09:03:30 51°24.557 2°41.819 -999 -999 -999 -999 -999
2009-01-29 09:03:35 51°24.569 2°41.798 -999 -999 -999 -999 -999
2009-01-29 09:03:40 51°24.58 2°41.777 -999 -999 -999 -999 -999
2009-01-29 09:03:45 51°24.591 2°41.756 -999 -999 -999 -999 -999
2009-01-29 09:03:50 51°24.603 2°41.736 -999 -999 -999 -999 -999
2009-01-29 09:03:55 51°24.615 2°41.716 -999 -999 -999 -999 -999
2009-01-29 09:04:00 51°24.627 2°41.696 -999 -999 -999 -999 -999
2009-01-29 09:04:05 51°24.638 2°41.675 -999 -999 -999 -999 -999
2009-01-29 09:04:10 51°24.65 2°41.655 -999 -999 -999 -999 -999
2009-01-29 09:04:15 51°24.661 2°41.634 -999 -999 -999 -999 -999
2009-01-29 09:04:20 51°24.672 2°41.613 -999 -999 -999 -999 -999
2009-01-29 09:04:25 51°24.684 2°41.592 -999 -999 -999 -999 -999
2009-01-29 09:04:30 51°24.695 2°41.571 -999 -999 -999 -999 -999
2009-01-29 09:04:35 51°24.706 2°41.55 -999 -999 -999 -999 -999
2009-01-29 09:04:40 51°24.717 2°41.529 -999 -999 -999 -999 -999
2009-01-29 09:04:45 51°24.728 2°41.508 -999 -999 -999 -999 -999
2009-01-29 09:04:50 51°24.739 2°41.486 -999 -999 -999 -999 -999
2009-01-29 09:04:55 51°24.75 2°41.465 -999 -999 -999 -999 -999
2009-01-29 09:05:00 51°24.761 2°41.444 -999 -999 -999 -999 -999
2009-01-29 09:05:05 51°24.772 2°41.422 -999 -999 -999 -999 -999
2009-01-29 09:05:10 51°24.783 2°41.401 -999 -999 -999 -999 -999
2009-01-29 09:05:15 51°24.794 2°41.379 -999 -999 -999 -999 -999
2009-01-29 09:05:20 51°24.804 2°41.357 -999 -999 -999 -999 -999
2009-01-29 09:05:25 51°24.815 2°41.335 -999 -999 -999 -999 -999
2009-01-29 09:05:30 51°24.826 2°41.314 -999 -999 -999 -999 -999
2009-01-29 09:05:35 51°24.836 2°41.291 -999 -999 -999 -999 -999
2009-01-29 09:05:40 51°24.847 2°41.27 -999 -999 -999 -999 -999
2009-01-29 09:05:45 51°24.857 2°41.248 -999 -999 -999 -999 -999
2009-01-29 09:05:50 51°24.868 2°41.226 -999 -999 -999 -999 -999
2009-01-29 09:05:55 51°24.879 2°41.204 -999 -999 -999 -999 -999
2009-01-29 09:06:00 51°24.89 2°41.182 -999 -999 -999 -999 -999
2009-01-29 09:06:05 51°24.9 2°41.16 -999 -999 -999 -999 -999
2009-01-29 09:06:10 51°24.911 2°41.139 -999 -999 -999 -999 -999
2009-01-29 09:06:15 51°24.922 2°41.117 -999 -999 -999 -999 -999
2009-01-29 09:06:20 51°24.932 2°41.094 -999 -999 -999 -999 -999
2009-01-29 09:06:25 51°24.942 2°41.072 -999 -999 -999 -999 -999
2009-01-29 09:06:30 51°24.953 2°41.05 -999 -999 -999 -999 -999
2009-01-29 09:06:35 51°24.964 2°41.028 -999 -999 -999 -999 -999
2009-01-29 09:06:40 51°24.974 2°41.007 -999 -999 -999 -999 -999
2009-01-29 09:06:45 51°24.985 2°40.985 -999 -999 -999 -999 -999
2009-01-29 09:06:50 51°24.996 2°40.963 -999 -999 -999 -999 -999
2009-01-29 09:06:55 51°25.006 2°40.941 -999 -999 -999 -999 -999
2009-01-29 09:07:00 51°25.017 2°40.919 -999 -999 -999 -999 -999
2009-01-29 09:07:05 51°25.027 2°40.897 -999 -999 -999 -999 -999
2009-01-29 09:07:10 51°25.038 2°40.875 -999 -999 -999 -999 -999
2009-01-29 09:07:14 51°25.047 2°40.857 -999 -999 -999 -999 -999
2009-01-29 09:07:20 51°25.059 2°40.831 -999 -999 -999 -999 -999
2009-01-29 09:07:25 51°25.07 2°40.809 -999 -999 -999 -999 -999
2009-01-29 09:07:30 51°25.08 2°40.786 -999 -999 -999 -999 -999
2009-01-29 09:07:35 51°25.09 2°40.764 -999 -999 -999 -999 -999
2009-01-29 09:07:40 51°25.101 2°40.741 -999 -999 -999 -999 -999
2009-01-29 09:07:45 51°25.112 2°40.719 -999 -999 -999 -999 -999
2009-01-29 09:07:50 51°25.122 2°40.696 -999 -999 -999 -999 -999
2009-01-29 09:07:55 51°25.133 2°40.674 -999 -999 -999 -999 -999
2009-01-29 09:08:00 51°25.143 2°40.652 -999 -999 -999 -999 -999
2009-01-29 09:08:05 51°25.154 2°40.63 -999 -999 -999 -999 -999
2009-01-29 09:08:10 51°25.164 2°40.608 -999 -999 -999 -999 -999
2009-01-29 09:08:15 51°25.175 2°40.587 -999 -999 -999 -999 -999
2009-01-29 09:08:20 51°25.186 2°40.564 -999 -999 -999 -999 -999
2009-01-29 09:08:25 51°25.196 2°40.542 -999 -999 -999 -999 -999
2009-01-29 09:08:30 51°25.206 2°40.52 -999 -999 -999 -999 -999
2009-01-29 09:08:35 51°25.216 2°40.497 -999 -999 -999 -999 -999
2009-01-29 09:08:40 51°25.226 2°40.474 -999 -999 -999 -999 -999
2009-01-29 09:08:45 51°25.236 2°40.451 -999 -999 -999 -999 -999
2009-01-29 09:08:50 51°25.246 2°40.429 -999 -999 -999 -999 -999
2009-01-29 09:08:55 51°25.257 2°40.406 -999 -999 -999 -999 -999
2009-01-29 09:09:00 51°25.266 2°40.383 -999 -999 -999 -999 -999
2009-01-29 09:09:05 51°25.277 2°40.36 -999 -999 -999 -999 -999
2009-01-29 09:09:10 51°25.287 2°40.338 -999 -999 -999 -999 -999
2009-01-29 09:09:15 51°25.297 2°40.316 -999 -999 -999 -999 -999
2009-01-29 09:09:20 51°25.308 2°40.295 -999 -999 -999 -999 -999
2009-01-29 09:09:25 51°25.319 2°40.273 -999 -999 -999 -999 -999
2009-01-29 09:09:30 51°25.33 2°40.251 -999 -999 -999 -999 -999
2009-01-29 09:09:35 51°25.34 2°40.23 -999 -999 -999 -999 -999
2009-01-29 09:09:40 51°25.351 2°40.208 -999 -999 -999 -999 -999
2009-01-29 09:09:45 51°25.362 2°40.187 -999 -999 -999 -999 -999
2009-01-29 09:09:50 51°25.373 2°40.165 -999 -999 -999 -999 -999
2009-01-29 09:09:54 51°25.381 2°40.147 -999 -999 -999 -999 -999
2009-01-29 09:10:00 51°25.394 2°40.121 -999 -999 -999 -999 -999
2009-01-29 09:10:05 51°25.405 2°40.1 -999 -999 -999 -999 -999
2009-01-29 09:10:10 51°25.415 2°40.078 -999 -999 -999 -999 -999
2009-01-29 09:10:15 51°25.426 2°40.056 -999 -999 -999 -999 -999
2009-01-29 09:10:20 51°25.437 2°40.035 -999 -999 -999 -999 -999
2009-01-29 09:10:25 51°25.448 2°40.014 -999 -999 -999 -999 -999
2009-01-29 09:10:30 51°25.459 2°39.993 -999 -999 -999 -999 -999
2009-01-29 09:10:35 51°25.471 2°39.972 -999 -999 -999 -999 -999
2009-01-29 09:10:40 51°25.482 2°39.951 -999 -999 -999 -999 -999
2009-01-29 09:10:45 51°25.494 2°39.931 -999 -999 -999 -999 -999
2009-01-29 09:10:50 51°25.506 2°39.911 -999 -999 -999 -999 -999
2009-01-29 09:10:55 51°25.518 2°39.891 -999 -999 -999 -999 -999